Location: Dover
(29.6766°N, 95.6377°W)
Time: 04:10:29
(UTC+00:00)

Daily predictions for brighter satellites

Satellite Brightness Start Highest point End
(mag) Time Altitude Azimuth Time Altitude Azimuth Time Altitude Azimuth
Helios 1A Rocket 3.0 00:35:14 10° SSE 00:39:14 59° ENE 00:43:17 10° N
Cosmos 1674 Rocket 4.1 00:36:16 10° NNW 00:40:42 68° W 00:45:06 10° S
Cosmos 1975 Rocket 4.1 00:38:23 10° NNE 00:41:53 24° E 00:45:22 10° SE
Shenzhou-11 Module 3.2 00:44:11 10° S 00:45:28 14° SE 00:46:45 10° ESE
Cosmos 2233 Rocket 4.2 00:40:23 10° S 00:46:39 84° W 00:52:52 10° N
COSMO-SKYMED 1 3.8 00:43:31 10° N 00:47:41 47° WNW 00:51:50 10° SSW
Cosmos 1603 3.9 00:48:11 10° N 00:53:38 48° ENE 00:59:00 10° SE
H-2A R/B 2.9 00:52:29 10° SE 00:56:31 26° ENE 01:00:37 10° NNE
ATLAS 2AS CENTAUR R/B 4.1 00:52:17 10° SSE 00:57:42 21° ESE 01:03:12 10° ENE
Sich 1 Rocket 3.7 00:53:59 10° S 00:58:18 53° E 01:02:42 10° NNE
Cosmos 1975 3.8 00:56:28 10° SSW 01:00:27 53° W 01:04:27 10° N
Meteor 1-21 4.4 00:55:06 10° N 01:00:31 51° E 01:05:56 10° SSE
DMSP B5D1-3 4.4 00:57:35 10° NNE 01:02:41 75° ESE 01:07:45 10° S
Okean 2 3.3 01:02:07 10° N 01:06:17 81° E 01:10:24 10° S
GOES 2 Rocket 3.1 01:05:11 10° WSW 01:09:18 55° SSE 01:12:20 18° E
CZ-4 R/B 1.5 01:06:33 10° SSE 01:10:46 88° WSW 01:14:59 10° NNW
Cosmos 1842 3.2 01:07:10 10° N 01:11:02 87° E 01:14:55 10° S
Okean 2 Rocket 3.3 01:10:23 10° SSE 01:14:44 50° E 01:19:04 10° NNE
Cosmos 1300 Rocket 3.6 01:13:10 10° S 01:17:24 52° E 01:21:41 10° NNE
Ariane Rocket 4.4 01:16:43 17° E 01:17:40 18° ENE 01:21:00 10° NNE
USA 116 4.5 01:15:36 10° N 01:19:15 56° WNW 01:23:23 10° SSW
Cosmos 1707 3.3 01:17:41 10° NNE 01:21:11 33° E 01:23:09 20° SE
Okean-O 3.6 01:20:53 10° S 01:25:10 50° W 01:29:28 10° NNW
ARGOS 3.6 01:20:48 10° SE 01:25:44 40° ENE 01:30:42 10° N
DELTA 2 R/B (1) 3.8 01:20:28 10° NW 01:25:55 56° NNE 01:29:07 24° E
YAOGAN 1 2.8 01:22:20 10° S 01:26:37 70° WSW 01:30:56 10° NNW
CZ-2C R/B 3.1 01:28:29 10° SSE 01:33:36 88° W 01:39:02 10° NNW
Cosmos 2298 Rocket 4.1 01:29:45 10° SSW 01:35:04 84° WNW 01:40:25 10° NNE
Cosmos 1437 4.0 01:32:17 10° NNW 01:35:06 39° W 01:37:54 10° SSW
CZ-2C R/B 2.9 01:32:52 10° NNE 01:38:16 48° E 01:43:39 10° S
USA 186 4.2 01:43:20 12° NNE 01:43:20 12° NNE 01:43:39 10° NNE
Cosmos 2285 Rocket 4.0 01:39:12 10° S 01:45:18 57° ESE 01:51:29 10° NNE
MOS 1 Rocket 3.7 01:41:16 10° N 01:45:31 56° WNW 01:49:42 10° SSW
Cosmos 1536 Rocket 4.3 01:42:02 10° NNE 01:45:33 35° ENE 01:45:33 35° ENE
Cosmos 1844 3.6 01:43:19 10° SSW 01:49:02 85° ESE 01:54:44 10° NNE
Cosmos 1464 Rocket 4.3 01:44:45 10° SSW 01:50:49 69° W 01:56:56 10° N
Cosmos 1025 Rocket 3.0 01:46:42 10° N 01:51:03 59° E 01:51:49 50° SE
Delta 128 4.1 01:47:32 10° W 01:52:20 48° SSW 01:53:26 39° SSE
Cosmos 1844 Rocket 3.0 01:48:08 10° SSW 01:53:39 68° WNW 01:59:12 10° NNE
Cosmos 2151 Rocket 3.8 01:52:04 10° SSW 01:56:28 71° W 02:00:55 10° N
Cosmos 1867 3.5 01:54:59 10° NNW 02:00:26 71° ENE 02:01:45 51° SE
CZ-2C R/B 2.3 02:04:27 10° WNW 02:07:04 33° NNW 02:07:04 33° NNW
Cosmos 1125 Rocket 3.8 02:03:05 10° SSW 02:08:20 67° WNW 02:13:37 10° N
MOS 1 4.3 02:10:42 56° E 02:10:51 56° ENE 02:16:25 10° N
USA 234 3.3 02:06:05 10° NE 02:12:38 80° NW 02:19:10 10° SW
Milstar 3 Cent rocket 2.1 02:06:57 10° WSW 02:13:53 65° S 02:14:14 63° SSE
Longmarch 3A Rocket 2.8 02:11:34 10° WSW 02:12:56 36° WSW 02:12:56 36° WSW
DMSP B5D2-2 4.2 02:15:25 10° N 02:20:41 74° WNW 02:25:56 10° SSW
NOSS 3-4 (A) 3.3 02:19:49 10° SSW 02:25:40 79° WNW 02:30:10 19° NNE
NOSS 3-4 (C) 3.3 02:19:57 10° SSW 02:25:47 80° WNW 02:29:46 22° NNE
H-2A R/B 4.0 02:31:49 10° SSW 02:35:49 25° W 02:39:52 10° NW
H-2A R/B 4.4 02:33:33 10° W 02:33:47 13° W 02:33:47 13° W
ATLAS 2AS CENTAUR R/B 3.2 02:40:13 10° SW 02:48:00 69° WNW 02:55:57 10° NNE
BREEZE-M DEB (TANK) 4.3 02:49:24 10° NW 02:54:11 64° NE 02:54:11 64° NE
Ariane Rocket 4.3 02:56:56 37° W 02:56:56 37° W 03:00:59 10° NNW
CENTAUR R/B 3.5 02:54:14 10° NNW 03:01:27 56° NNE 03:01:27 56° NNE
USA 238 DEB 4.3 03:10:56 10° NNW 03:16:45 58° NW 03:16:45 58° NW
USA 238 4.3 03:11:02 10° NNW 03:16:50 58° NW 03:16:50 58° NW
SL-16 R/B 4.2 09:05:31 23° E 09:05:31 23° E 09:09:02 10° NE
SJ 16-02 4.3 09:28:49 10° NNE 09:31:16 15° ENE 09:33:42 10° E
Cosmos 1238 Rocket 4.2 09:33:20 10° N 09:39:04 61° NE 09:39:04 61° NE
BREEZE-M DEB (TANK) 4.4 09:39:27 50° NNW 09:39:59 51° NNW 09:57:42 10° NE
Cosmos 1727 Rocket 4.1 10:03:34 21° S 10:07:55 73° E 10:14:15 10° N
DASH 3.3 10:14:07 56° SSW 10:14:07 56° SSW 10:17:11 10° ESE
Meteor 1-27 Rocket 4.0 10:14:11 12° S 10:19:37 72° E 10:25:32 10° NNE
Cosmos 2360 Rocket 3.0 10:17:16 14° S 10:22:02 51° ESE 10:27:30 10° NNE
ADEOS Rocket 4.1 10:18:53 10° SE 10:25:38 49° ENE 10:31:44 10° N
Cosmos 1707 Rocket 3.4 10:26:34 63° S 10:27:14 90° E 10:31:35 10° N
Cosmos 1666 3.5 10:28:10 10° N 10:31:52 50° E 10:35:31 10° SSE
IRIDIUM 104 4.2 10:26:55 10° N 10:32:08 78° W 10:37:20 10° S
Cosmos 1980 Rocket 4.4 10:34:34 10° NW 10:34:34 10° NW 10:34:45 10° NW
Timation 1 Rocket 4.5 10:28:34 10° NNW 10:34:18 48° WSW 10:40:01 10° S
Cosmos 2208 Rocket 4.5 10:30:17 10° S 10:35:27 60° ESE 10:40:36 10° NNE
Cosmos 2322 Rocket 2.3 10:37:25 41° WSW 10:38:58 53° WNW 10:44:33 10° N
USA 234 3.9 10:32:44 10° ESE 10:39:03 55° NE 10:45:23 10° NNW
FENGYUN 3A 4.5 10:35:03 10° NNE 10:40:18 52° E 10:45:32 10° S
IRIDIUM 114 4.2 10:36:07 10° N 10:41:16 62° W 10:46:23 10° SSW
SL-4 R/B 3.6 10:43:55 24° NW 10:44:15 24° NW 10:48:04 10° NNE
Cosmos 2263 Rocket 2.1 10:41:24 10° NNW 10:47:04 82° WSW 10:52:45 10° SSE
USA 32 4.0 10:41:52 10° N 10:47:09 89° E 10:52:23 10° S
BREEZE-M DEB (TANK) 4.4 10:45:08 19° S 10:47:22 44° ESE 10:55:44 10° NE
SL-16 R/B 2.8 10:47:26 32° W 10:48:25 34° WNW 10:53:33 10° N
Cosmos 2237 4.1 10:45:30 16° SSW 10:50:08 77° WNW 10:55:51 10° NNE
IRIDIUM 103 4.5 10:45:22 10° NNW 10:50:22 49° W 10:55:22 10° SSW
Cosmos 1814 Rocket 3.9 10:47:45 10° SSW 10:52:54 90° SSW 10:58:10 10° NNE
Cosmos 1733 Rocket 4.0 10:48:45 10° N 10:52:57 48° E 10:57:06 10° SSE
Cosmos 1937 Rocket 4.4 10:48:34 10° N 10:53:33 51° ENE 10:58:31 10° SSE
Cosmos 44 Rocket 3.3 10:51:43 32° WSW 10:53:37 56° WNW 10:58:19 10° NNE
Cosmos 841 Rocket 3.4 10:50:02 17° SSW 10:54:05 67° WNW 10:59:19 10° N
ADEOS 3.5 10:53:26 10° N 10:58:39 74° WNW 11:03:50 10° SSW
Cosmos 1869 Rocket 4.1 10:56:10 10° NNW 11:00:01 32° W 11:03:52 10° SSW
Cosmos 1862 Rocket 3.4 10:57:03 10° S 11:01:27 78° W 11:05:49 10° N
CZ-2C R/B 3.2 10:56:59 10° N 11:01:37 34° WNW 11:04:21 21° WSW
CZ-4B R/B 1.4 11:01:51 10° SSE 11:04:55 73° ENE 11:08:05 10° N
Cosmos 2227 4.3 11:01:00 10° NNW 11:06:24 48° WSW 11:11:45 10° S
Cosmos 2173 Rocket 4.1 11:00:04 10° N 11:06:27 84° E 11:12:49 10° S
H-2A R/B 3.0 11:05:36 10° SSW 11:09:13 26° W 11:12:53 10° NW
SJ 16-02 1.9 11:05:55 10° NW 11:09:53 34° W 11:13:51 10° SSW
Cosmos 1743 4.3 11:07:45 10° NNE 11:11:19 38° E 11:14:52 10° SSE
Cosmos 2219 Rocket 3.3 11:07:01 10° S 11:12:23 46° ESE 11:17:47 10° NNE
Cosmos 1689 Rocket 4.4 11:10:56 10° SE 11:13:30 28° ENE 11:16:05 10° NNE
Cosmos 1570 Rocket 4.5 11:11:57 10° SW 11:16:47 40° WNW 11:21:47 10° N
COSMOS 2428 3.9 11:13:42 10° S 11:19:05 46° ESE 11:24:32 10° NNE
ERS-2 2.9 11:16:35 10° SSW 11:19:49 29° W 11:23:02 10° NW
Okean 1 3.2 11:20:18 10° S 11:24:20 82° W 11:28:23 10° N
Cosmos 2061 Rocket 4.2 11:20:36 10° N 11:27:04 81° E 11:33:28 10° S
Intercosmos 25 3.6 11:21:51 10° SSW 11:27:04 57° W 11:30:39 10° N
X-37B 3.4 11:25:56 10° N 11:27:42 14° NNE 11:29:27 10° ENE
Cosmos 2333 Rocket 2.5 11:23:09 10° SSW 11:28:53 76° ESE 11:34:38 10° NNE
Cosmos 540 Rocket 4.3 11:24:46 10° SW 11:29:11 29° WNW 11:33:38 10° N
Meteor 2-20 Rocket 4.4 11:24:18 10° S 11:30:26 74° W 11:36:34 10° N
CZ-4B R/B 2.5 11:28:34 10° N 11:32:10 78° WNW 11:35:43 10° SSW
Skynet4D Del rocket 4.1 11:27:38 13° W 11:32:30 52° SSW 11:38:34 10° ESE
BREEZE M DEB (TANK) 2.6 11:26:42 10° NW 11:33:53 81° NE 11:36:40 10° SE
Meteor 1-18 Rocket 4.2 11:28:56 10° S 11:34:28 88° W 11:40:03 10° N
COSMO-SKYMED 1 3.3 11:32:00 10° SSE 11:36:15 59° ENE 11:40:30 10° N
Cosmos 2016 Rocket 3.9 11:31:02 10° N 11:37:09 82° W 11:43:13 10° S
Cosmos 2322 3.7 11:31:42 10° SSW 11:37:19 67° WNW 11:42:56 10° NNE
Cosmos 1484 Rocket 3.8 11:34:10 10° NNW 11:37:33 27° WNW 11:40:58 10° SW
Meteor PRIRODA 3.5 11:33:55 10° N 11:37:33 80° WNW 11:41:10 10° SSW
Meteor 1-19 Rocket 4.2 11:34:17 10° S 11:39:41 86° W 11:45:14 10° N
H-2A R/B 3.8 11:36:15 10° NNE 11:40:29 47° E 11:44:48 10° S
ALOS 3.0 11:36:25 10° N 11:40:34 32° WNW 11:44:42 10° SW
Yuri Rocket 3.8 11:39:08 10° WSW 11:43:43 61° SSE 11:49:45 10° E
Cosmos 1536 4.0 11:42:34 10° NW 11:45:42 21° W 11:48:48 10° SW
Cosmos 1437 Rocket 3.5 11:42:46 10° SW 11:46:05 30° W 11:49:27 10° NNW
Hubble Space Telescope 3.0 11:43:20 10° SSW 11:46:13 18° SSE 11:49:05 10° ESE
ARGOS Delta rocket 4.0 11:43:04 10° NNE 11:47:39 78° E 11:52:28 10° S
Meteor 1-31 Rocket 3.9 11:46:01 10° NNW 11:49:05 23° WNW 11:52:10 10° SW
PSLV R/B 3.9 11:46:15 10° S 11:50:17 85° W 11:54:21 10° NNW
